Flag for Italy Weather past 2 weeks in Messina, Italy

Now
82 °F

Sunny.


Feels Like: 86 °F
Forecast: 77 / 87 °F
Wind: 6 mph from North

Location: Reggio Calabria

Current Time: Sep 5, 2015 at 9:53:18 AM

Latest Report: Sep 5, 2015 at 8:50 AM


Visibility: 10 mi

Pressure: 29.95 "Hg

Humidity: 66%

Dew point: 70 °F

Location of MessinaLocation

Historic Weather in Messina — Graph

°F

Messina temperature yesterday

Maximum temperature yesterday: 97 °F (at 1:50 PM)
Minimum temperature yesterday: 75 °F (at 6:50 AM)
Average temperature yesterday: 86 °F

Past Weeks' High & Low Weather Summary

 TemperatureHumidityPressure
High97 °F (Sep 3, 9:50 PM)84% (Aug 27, 9:50 PM)30.15 "Hg (Aug 27, 9:50 PM)
Low72 °F (Aug 23, 6:00 AM)20% (Sep 4, 1:50 PM)29.89 "Hg (Sep 1, 6:50 PM)
Average83 °F55%30.00 "Hg
* Reported Aug 21 7:50 AM — Sep 5 7:50 AM, Messina, Weather by CustomWeather, © 2015

Note: Actual official high and low records may vary slightly from our data, if they occured in-between our weather recording intervals... More about our weather records

Advertising

Messina weather history for previous 24 hours

 ConditionsComfort  
Time TempWeatherWind HumidityBarometerVisibility
7:50 AM
Sat, Sep 5
82 °FSunny.6 mph62%29.95 "Hg10 mi
6:50 AM81 °FClear.No wind66%29.95 "Hg10 mi
6:00 AM81 °FClear.3 mph51%29.92 "Hg10 mi
11:50 PM
Fri, Sep 4
81 °FPassing clouds.3 mph51%29.95 "HgN/A
10:50 PM81 °FClear.3 mph58%29.95 "Hg10 mi
9:50 PM81 °FClear.1 mph62%29.95 "Hg10 mi
8:50 PM81 °FClear.3 mph79%29.95 "Hg10 mi
7:50 PM82 °FPassing clouds.3 mph70%29.95 "HgN/A
6:50 PM88 °FSunny.2 mph52%29.92 "Hg10 mi
5:50 PM86 °FSunny.5 mph55%29.95 "Hg10 mi
4:50 PM91 °FSunny.9 mph32%29.92 "Hg10 mi
3:50 PM91 °FSunny.5 mph36%29.92 "Hg10 mi
2:50 PM90 °FSunny.9 mph49%29.95 "Hg10 mi
1:50 PM97 °FSunny.9 mph20%29.95 "Hg10 mi
12:50 PM95 °FPassing clouds.8 mph25%29.98 "HgN/A
11:50 AM93 °FPassing clouds.9 mph28%29.98 "HgN/A
10:50 AM88 °FSunny.9 mph38%29.98 "Hg10 mi
9:50 AM91 °FSunny.2 mph28%29.95 "Hg10 mi
Weather by CustomWeather, © 2015

See weather overviewHow to use our weather pages